GW2016 Weather Reports


time (UTC)temp
F
wind
direction
speed
knots
gust
knots
rain 1hr
in
rain 24hr
in
rain mn
in
humidity
%
barometer
mb
20260506155105 54 19 4.3 13.0 0.00 0.00 0.00 79 1011.6
20260506154105 54 93 6.1 17.4 0.00 0.00 0.00 78 1011.5
20260506153605 54 64 5.2 13.9 0.00 0.00 0.00 77 1011.5
20260506152105 55 46 5.2 12.2 0.00 0.00 0.00 73 1011.3
20260506151605 55 60 5.2 12.2 0.00 0.00 0.00 72 1011.3
20260506151105 56 78 4.3 10.4 0.00 0.00 0.00 72 1011.2
20260506150605 55 124 5.2 11.3 0.00 0.00 0.00 72 1011.3
20260506150104 56 80 5.2 12.2 0.00 0.00 0.00 71 1011.3
20260506145604 55 23 6.1 20.9 0.00 0.00 0.00 70 1011.2
20260506145105 56 62 3.5 13.9 0.00 0.00 0.00 71 1011.2
20260506144605 56 36 5.2 13.9 0.00 0.00 0.00 71 1011.1
20260506144105 56 25 7.8 18.2 0.00 0.00 0.00 70 1011.1
20260506143605 56 65 5.2 14.8 0.00 0.00 0.00 71 1011.0
20260506143105 56 55 5.2 13.0 0.00 0.00 0.00 70 1011.0
20260506142605 56 61 4.3 11.3 0.00 0.00 0.00 68 1011.1
20260506142104 56 49 8.7 15.6 0.00 0.00 0.00 67 1011.1
20260506141605 56 20 5.2 13.9 0.00 0.00 0.00 67 1011.2
20260506141105 56 47 6.1 19.1 0.00 0.00 0.00 68 1011.1
20260506140604 56 61 6.1 15.6 0.00 0.00 0.00 68 1011.0
20260506140105 56 45 5.2 20.9 0.00 0.00 0.00 68 1011.0
20260506135604 56 83 3.5 10.4 0.00 0.00 0.00 67 1011.2
20260506134604 56 119 4.3 10.4 0.00 0.00 0.00 67 1011.2
20260506133604 56 74 7.0 10.4 0.00 0.00 0.00 69 1011.3
20260506132606 56 115 6.1 12.2 0.00 0.00 0.00 69 1011.3
20260506132105 55 53 5.2 11.3 0.00 0.00 0.00 69 1011.3
20260506131605 55 35 5.2 13.0 0.00 0.00 0.00 69 1011.1
20260506131105 54 62 4.3 14.8 0.00 0.00 0.00 71 1011.0
20260506130105 54 33 6.1 20.0 0.00 0.00 0.00 72 1011.1
20260506125605 54 49 6.1 20.0 0.00 0.00 0.00 73 1011.3
20260506124105 54 36 8.7 20.9 0.00 0.00 0.00 73 1011.3
20260506123604 54 52 7.8 20.9 0.00 0.00 0.00 73 1011.0
20260506123105 54 44 8.7 21.7 0.00 0.00 0.00 73 1011.1
20260506122605 54 48 7.0 20.0 0.00 0.00 0.00 73 1011.0
20260506122105 54 41 10.4 25.2 0.00 0.00 0.00 73 1011.2
20260506121604 54 31 7.0 26.9 0.00 0.00 0.00 73 1011.2
20260506120605 54 68 8.7 28.7 0.00 0.00 0.00 73 1011.1
20260506120105 54 25 7.8 20.9 0.00 0.00 0.00 73 1011.0
20260506115104 54 49 7.0 24.3 0.00 0.00 0.00 72 1011.0
20260506114605 54 26 8.7 22.6 0.00 0.00 0.00 71 1011.1
20260506114105 54 55 6.1 20.0 0.00 0.00 0.00 71 1011.0
20260506113605 55 38 7.0 14.8 0.00 0.00 0.00 70 1011.1
20260506113105 55 25 6.1 13.0 0.00 0.00 0.00 69 1011.0
20260506112604 54 22 6.1 21.7 0.00 0.00 0.00 69 1010.8
20260506112106 54 54 8.7 24.3 0.00 0.00 0.00 70 1010.8
20260506111605 54 54 5.2 20.0 0.00 0.00 0.00 68 1010.9
20260506111105 54 22 7.8 21.7 0.00 0.00 0.00 68 1011.0
20260506110105 55 48 9.6 20.0 0.00 0.00 0.00 69 1011.0
20260506105604 54 52 6.1 24.3 0.00 0.00 0.00 70 1010.8
20260506105105 54 31 6.1 19.1 0.00 0.00 0.00 72 1010.9
20260506104605 54 8 6.1 22.6 0.00 0.00 0.00 72 1010.9
20260506104105 55 25 7.0 19.1 0.00 0.00 0.00 72 1010.8
20260506103605 55 19 6.1 15.6 0.00 0.00 0.00 71 1010.9
20260506102604 55 49 6.1 21.7 0.00 0.00 0.00 70 1011.0
20260506102105 54 35 8.7 17.4 0.00 0.00 0.00 70 1010.9
20260506101605 54 35 6.1 15.6 0.00 0.00 0.00 72 1011.0
20260506101105 54 44 5.2 19.1 0.00 0.00 0.00 70 1011.2
20260506100605 54 57 6.1 20.9 0.00 0.00 0.00 72 1011.0
20260506100106 53 53 8.7 20.9 0.00 0.00 0.00 73 1011.1
20260506095604 53 50 7.0 21.7 0.00 0.00 0.00 73 1010.8
20260506095105 53 30 9.6 22.6 0.00 0.00 0.00 73 1011.0
20260506094605 53 41 7.8 24.3 0.00 0.00 0.00 72 1010.9
20260506094104 53 51 7.0 17.4 0.00 0.00 0.00 72 1010.9
20260506093105 54 21 7.8 20.9 0.00 0.00 0.00 70 1010.9
20260506092605 53 39 7.8 20.0 0.00 0.00 0.00 71 1011.0
20260506092104 52 38 5.2 19.1 0.00 0.00 0.00 72 1011.1
20260506091604 54 45 9.6 20.9 0.00 0.00 0.00 70 1010.9
20260506090604 54 33 7.8 21.7 0.00 0.00 0.00 70 1010.8
20260506090104 53 42 7.0 22.6 0.00 0.00 0.00 71 1010.5
20260506085604 53 39 11.3 22.6 0.00 0.00 0.00 71 1010.7
20260506085105 53 14 8.7 26.1 0.00 0.00 0.00 72 1010.7
20260506084605 53 22 9.6 22.6 0.00 0.00 0.00 73 1010.6
20260506084105 53 27 10.4 26.9 0.00 0.00 0.00 73 1010.6
20260506083604 53 31 10.4 24.3 0.00 0.00 0.00 73 1010.9
20260506083104 52 22 10.4 19.1 0.00 0.00 0.00 74 1010.8
20260506082604 52 19 6.1 21.7 0.00 0.00 0.00 75 1010.7
20260506082105 52 49 7.0 18.2 0.00 0.00 0.00 76 1010.8
20260506081604 52 89 7.8 20.0 0.00 0.00 0.00 76 1010.7
20260506080604 52 48 7.8 18.2 0.00 0.00 0.00 76 1010.6
20260506080104 52 42 8.7 19.1 0.00 0.00 0.00 76 1010.6
20260506073105 51 34 5.2 18.2 0.00 0.00 0.00 80 1010.6
20260506072604 51 51 5.2 13.9 0.00 0.00 0.00 81 1010.5
20260506072104 51 32 7.0 22.6 0.00 0.00 0.00 82 1010.7
20260506071605 50 73 6.1 13.0 0.00 0.00 0.00 83 1010.6
20260506071105 50 31 5.2 15.6 0.00 0.00 0.00 84 1010.5
20260506062105 49 63 4.3 11.3 0.00 0.00 0.00 86 1010.3
20260506061605 48 62 6.1 17.4 0.00 0.00 0.00 86 1010.3
20260506061105 48 40 5.2 17.4 0.00 0.00 0.00 86 1010.4
20260506060605 48 24 7.8 15.6 0.00 0.00 0.00 87 1010.3
20260506060104 48 49 7.0 15.6 0.00 0.00 0.00 87 1010.2
20260506051104 48 348 7.8 20.9 0.00 0.00 0.00 90 1010.1
20260506050604 48 4 7.0 17.4 0.00 0.00 0.00 90 1010.0
20260506050104 47 33 5.2 18.2 0.00 0.00 0.00 90 1010.1
20260506045105 47 0 4.3 11.3 0.00 0.00 0.00 91 1009.9
20260506044604 47 108 5.2 12.2 0.00 0.00 0.00 91 1010.1
20260506043105 48 125 4.3 12.2 0.00 0.00 0.00 91 1010.1
20260506042605 48 88 5.2 11.3 0.00 0.00 0.00 91 1010.0
20260506042105 48 115 3.5 8.7 0.00 0.00 0.00 91 1009.9
20260506041605 48 113 3.5 12.2 0.00 0.00 0.00 91 1010.0
20260506041105 48 112 5.2 13.0 0.00 0.00 0.00 90 1010.0
20260506040605 48 117 6.1 13.9 0.00 0.00 0.00 90 1010.1
20260506040105 48 147 5.2 13.9 0.00 0.00 0.00 90 1010.0
20260506035605 48 50 5.2 13.9 0.00 0.00 0.00 90 1009.9
20260506035104 48 102 4.3 10.4 0.00 0.00 0.00 90 1009.8
20260506034605 48 103 2.6 8.7 0.00 0.00 0.00 89 1009.8
20260506034105 49 65 3.5 11.3 0.00 0.00 0.00 89 1009.8
20260506033605 49 53 5.2 18.2 0.00 0.00 0.00 89 1010.1
20260506033105 49 6 4.3 13.9 0.00 0.00 0.00 89 1010.0
20260506032604 49 57 5.2 13.0 0.00 0.00 0.00 89 1010.0
20260506032104 49 105 7.0 17.4 0.00 0.00 0.00 89 1010.0
20260506031604 49 49 6.1 20.9 0.00 0.00 0.00 89 1010.0
20260506031105 49 41 5.2 20.9 0.00 0.00 0.00 89 1010.0
20260506030605 49 86 5.2 12.2 0.00 0.00 0.00 89 1009.9
20260506030105 49 10 4.3 15.6 0.00 0.00 0.00 88 1010.1
20260506025605 49 46 3.5 8.7 0.00 0.00 0.00 88 1010.2
20260506025105 49 48 4.3 14.8 0.00 0.00 0.00 88 1010.2
20260506024605 49 84 4.3 14.8 0.00 0.00 0.00 88 1010.1
20260506023605 49 56 6.1 19.1 0.00 0.00 0.00 87 1010.2
20260506023105 49 63 6.1 20.0 0.00 0.00 0.00 87 1010.3
20260506022604 49 38 3.5 11.3 0.00 0.00 0.00 87 1010.2
20260506022104 49 69 3.5 12.2 0.00 0.00 0.00 87 1010.4
20260506021604 49 53 4.3 13.0 0.00 0.00 0.00 87 1010.3
20260506021105 49 41 5.2 10.4 0.00 0.00 0.00 87 1010.2
20260506020104 50 60 5.2 17.4 0.00 0.00 0.00 87 1010.3
20260506015604 50 58 5.2 17.4 0.00 0.00 0.00 87 1010.4
20260506014604 50 40 6.1 13.0 0.00 0.00 0.00 87 1010.5
20260506014105 50 66 6.1 22.6 0.00 0.00 0.00 87 1010.5
20260506013604 50 38 7.0 17.4 0.00 0.00 0.00 88 1010.5
20260506013104 50 50 5.2 14.8 0.00 0.00 0.00 88 1010.5
20260506012105 50 16 7.8 21.7 0.00 0.00 0.00 89 1010.7
20260506011605 50 42 8.7 21.7 0.00 0.00 0.00 89 1010.5
20260506011105 50 73 4.3 13.9 0.00 0.00 0.00 89 1010.6
20260506010605 50 34 6.1 18.2 0.00 0.00 0.00 89 1010.6
20260506010104 50 27 7.8 19.1 0.00 0.00 0.00 89 1010.6
20260506005604 50 26 5.2 17.4 0.00 0.00 0.00 89 1010.8
20260506004604 50 28 7.0 20.9 0.00 0.00 0.00 89 1010.6
20260506004104 50 11 8.7 22.6 0.00 0.00 0.00 90 1010.5
20260506003605 50 37 5.2 18.2 0.00 0.00 0.00 90 1010.6
20260506003105 50 42 7.0 18.2 0.00 0.00 0.00 90 1010.7
20260506002605 50 36 7.8 19.1 0.00 0.00 0.00 90 1010.5
20260506002105 49 49 5.2 19.1 0.00 0.00 0.00 90 1010.8
20260506001604 49 35 7.0 19.1 0.00 0.00 0.00 90 1010.9
20260506001105 49 55 6.1 20.0 0.00 0.00 0.00 90 1010.8
20260506000105 49 35 8.7 26.9 0.00 0.00 0.00 90 1010.7
20260505235605 49 36 6.1 27.8 0.00 0.00 0.00 90 1010.8
20260505235104 49 33 6.1 21.7 0.00 0.00 0.00 89 1010.8
20260505234605 49 36 6.1 21.7 0.00 0.00 0.00 89 1010.5
20260505234106 49 38 6.1 18.2 0.00 0.00 0.00 89 1010.8
20260505233605 49 50 4.3 20.0 0.00 0.00 0.00 89 1010.8
20260505233104 49 43 7.0 20.0 0.00 0.00 0.00 89 1010.5
20260505232605 49 15 8.7 26.1 0.00 0.00 0.00 88 1010.6
20260505232105 49 33 7.8 27.8 0.00 0.00 0.00 88 1010.6
20260505231605 49 30 7.8 26.9 0.00 0.00 0.00 88 1010.5
20260505231106 49 18 7.8 26.9 0.00 0.00 0.00 88 1010.5
20260505230104 49 71 6.1 20.0 0.00 0.00 0.00 87 1010.8
20260505225605 49 22 10.4 26.1 0.00 0.00 0.00 87 1010.9
20260505225105 49 23 11.3 26.1 0.00 0.00 0.00 87 1010.6
20260505224605 49 23 7.8 19.1 0.00 0.00 0.00 87 1010.6
20260505224105 49 40 7.8 21.7 0.00 0.00 0.00 87 1010.9
20260505223104 49 36 9.6 21.7 0.00 0.00 0.00 87 1010.8
20260505222605 49 38 7.0 21.7 0.00 0.00 0.00 87 1010.8
20260505221605 49 19 7.8 20.9 0.00 0.00 0.00 87 1010.6
20260505221104 49 32 7.8 25.2 0.00 0.00 0.00 87 1010.7
20260505220604 49 34 10.4 22.6 0.00 0.00 0.00 87 1010.7
20260505215604 50 43 8.7 18.2 0.00 0.00 0.00 87 1010.8
20260505215104 50 36 6.1 21.7 0.00 0.00 0.00 87 1010.7
20260505214604 50 35 7.8 24.3 0.00 0.00 0.00 87 1010.6
20260505214105 50 21 9.6 20.0 0.00 0.00 0.00 87 1010.6
20260505211605 50 34 6.1 21.7 0.00 0.00 0.00 86 1010.6
20260505211104 50 24 8.7 26.1 0.00 0.00 0.00 85 1011.0
20260505210604 50 36 6.1 28.7 0.00 0.00 0.00 85 1010.8
20260505210104 50 22 9.6 22.6 0.00 0.00 0.00 85 1010.9
20260505205605 51 25 8.7 26.9 0.00 0.00 0.00 84 1010.9
20260505204604 51 26 10.4 26.9 0.00 0.00 0.00 84 1010.7
20260505204104 51 46 5.2 15.6 0.00 0.00 0.00 84 1010.9
20260505203604 51 20 8.7 20.0 0.00 0.00 0.00 84 1010.7
20260505202604 51 28 6.1 19.1 0.00 0.00 0.00 83 1010.7
20260505202104 51 35 8.7 20.0 0.00 0.00 0.00 82 1010.8
20260505201605 51 37 7.8 24.3 0.00 0.00 0.00 82 1010.7
20260505201105 51 31 7.0 15.6 0.00 0.00 0.00 82 1010.6
20260505200605 51 84 6.1 19.1 0.00 0.00 0.00 81 1010.6
20260505200104 51 36 7.8 20.9 0.00 0.00 0.00 81 1010.5
20260505195605 52 24 6.1 17.4 0.00 0.00 0.00 81 1010.2
20260505195105 52 43 6.1 17.4 0.00 0.00 0.00 80 1010.3
20260505194604 52 35 6.1 17.4 0.00 0.00 0.00 80 1010.2
20260505194104 52 28 6.1 20.9 0.00 0.00 0.00 79 1010.4
20260505193604 52 33 8.7 20.9 0.00 0.00 0.00 79 1010.3
20260505193104 53 35 7.0 20.9 0.00 0.00 0.00 78 1010.1
20260505192604 53 23 7.8 20.9 0.00 0.00 0.00 77 1010.1
20260505192105 53 60 6.1 17.4 0.00 0.00 0.00 76 1010.0
20260505191105 54 31 6.1 20.0 0.00 0.00 0.00 75 1010.0
20260505185604 54 39 4.3 19.1 0.00 0.00 0.00 74 1010.2
20260505185104 55 54 6.1 14.8 0.00 0.00 0.00 73 1010.1
20260505184604 55 19 7.8 20.0 0.00 0.00 0.00 73 1010.1
20260505183604 55 46 6.1 19.1 0.00 0.00 0.00 72 1010.0
20260505183105 55 32 6.1 14.8 0.00 0.00 0.00 72 1010.2
20260505182604 55 37 5.2 17.4 0.00 0.00 0.00 71 1010.2
20260505182104 55 72 5.2 21.7 0.00 0.00 0.00 71 1010.0
20260505181605 55 50 8.7 17.4 0.00 0.00 0.00 69 1010.0
20260505181104 55 53 7.0 20.0 0.00 0.00 0.00 69 1009.9
20260505180605 56 35 7.8 20.0 0.00 0.00 0.00 68 1010.1
20260505180104 56 53 8.7 21.7 0.00 0.00 0.00 67 1009.9
20260505175605 56 59 7.8 20.9 0.00 0.00 0.00 66 1010.0
20260505175104 56 41 8.7 21.7 0.00 0.00 0.00 65 1010.1
20260505174605 57 55 7.8 18.2 0.00 0.00 0.00 64 1010.0
20260505174105 57 67 7.8 24.3 0.00 0.00 0.00 65 1009.8
20260505173604 57 55 6.1 20.0 0.00 0.00 0.00 64 1010.0
20260505172604 57 42 10.4 20.0 0.00 0.00 0.00 63 1010.1
20260505172104 56 60 5.2 20.0 0.00 0.00 0.00 64 1009.9
20260505171604 56 47 5.2 13.9 0.00 0.00 0.00 64 1010.0
20260505171105 56 31 6.1 13.9 0.00 0.00 0.00 65 1010.1
20260505170105 57 59 5.2 19.1 0.00 0.00 0.00 63 1010.2
20260505165604 57 53 6.1 20.0 0.00 0.00 0.00 62 1010.2
20260505164604 57 54 6.1 22.6 0.00 0.00 0.00 63 1010.0
20260505164105 57 51 8.7 31.3 0.00 0.00 0.00 62 1010.0
20260505163604 58 39 7.8 31.3 0.00 0.00 0.00 62 1010.1
20260505163104 59 39 7.8 21.7 0.00 0.00 0.00 61 1010.3
20260505162604 58 46 10.4 22.6 0.00 0.00 0.00 61 1010.0
20260505162104 58 64 6.1 20.0 0.00 0.00 0.00 62 1010.0
20260505161604 58 68 6.1 20.0 0.00 0.00 0.00 63 1009.9
20260505160604 57 48 7.8 17.4 0.00 0.00 0.00 64 1010.3
20260505160104 57 59 7.0 20.0 0.00 0.00 0.00 64 1010.3